Weather History for KCFE - July, 2013

Change the Weather History Date:

Friday, July 19, 2013

  Actual Average (KSTC) Record (KSTC)
Temperature  
Mean Temperature 74 °F 71 °F  
Max Temperature 82 °F 83 °F 101 °F (1934)
Min Temperature 65 °F 59 °F 43 °F (2009)
Degree Days  
Heating Degree Days 0 0  
Month to date heating degree days 13  
Since 1 June heating degree days 91  
Since 1 July heating degree days 13  
Cooling Degree Days 9 6  
Month to date cooling degree days 113  
Year to date cooling degree days 233  
Since 1 June cooling degree days 208  
Growing Degree Days 24 (Base 50)    
Moisture  
Dew Point 62 °F    
Average Humidity 59    
Maximum Humidity 85    
Minimum Humidity 39    
Precipitation  
Precipitation 0.05 in 0.10 in 1.98 in (1997)
Month to date precipitation 2.07  
Year to date precipitation 14.55  
Snow  
Snow 0.00 in 0.00 in 0.00 in ()
Month to date snowfall 0.0  
Since 1 June snowfall 0.0  
Since 1 July snowfall 0.0  
Snow Depth -    
Sea Level Pressure  
Sea Level Pressure 29.84 in    
Wind  
Wind Speed 8 mph (West)    
Max Wind Speed 16 mph    
Max Gust Speed 26 mph    
Visibility 10 miles    
Events Rain , Thunderstorm    
T = Trace of Precipitation, MM = Missing Value Source: NWS Daily Summary

Daily Weather History Graph

Daily Weather History Graph

Search for Another Location

Airport or City:

Trip Planner

Search our weather history database for the weather conditions in past years. The results will help you decide how hot, cold, wet, or windy it might be!

Date:

Astronomy

Jul. 19, 2013 Rise Set
Actual Time 5:46 AM CDT 8:56 PM CDT
Civil Twilight 5:10 AM CDT 9:31 PM CDT
Nautical Twilight 4:24 AM CDT 10:17 PM CDT
Astronomical Twilight 3:28 AM CDT 11:13 PM CDT
Moon 5:59 PM CDT (7/19) 2:29 AM CDT (7/19)
Length of Visible Light 16h 20m
Length of Day
15h 09m
Waxing Gibbous, 87% of the Moon is Illuminated
Jul 19
Waxing Gibbous
Jul 22
Full
Jul 29
Last Quarter
Aug 6
New
Aug 14
First Quarter

Hourly Weather History & Observations

Time (CDT) Temp. Heat Index Dew Point Humidity Pressure Visibility Wind Dir Wind Speed Gust Speed Precip Events Conditions
12:14 AM 81.5 °F 84.4 °F 68.4 °F 64% 29.77 in 10.0 mi South 9.2 mph - N/A   Mostly Cloudy
12:34 AM 81.5 °F 84.4 °F 68.2 °F 64% 29.77 in 10.0 mi SSW 8.1 mph - N/A   Overcast
12:54 AM 81.5 °F 84.4 °F 68.4 °F 64% 29.77 in 10.0 mi SSW 9.2 mph - N/A   Overcast
1:14 AM 81.1 °F 84.2 °F 68.7 °F 66% 29.76 in 10.0 mi SW 6.9 mph 18.4 mph N/A   Scattered Clouds
1:34 AM 80.6 °F 83.4 °F 68.4 °F 66% 29.77 in 10.0 mi SW 9.2 mph - N/A   Clear
1:54 AM 79.9 °F - 68.4 °F 68% 29.76 in 10.0 mi SW 9.2 mph - N/A   Clear
2:14 AM 80.2 °F 83.0 °F 68.2 °F 67% 29.76 in 10.0 mi SW 8.1 mph - N/A   Clear
2:34 AM 80.6 °F 83.2 °F 68.0 °F 65% 29.76 in 10.0 mi WSW 9.2 mph 17.3 mph N/A   Scattered Clouds
2:54 AM 79.7 °F - 68.2 °F 68% 29.75 in 10.0 mi WSW 10.4 mph - N/A   Clear
3:14 AM 79.0 °F - 68.9 °F 71% 29.75 in 10.0 mi West 10.4 mph - N/A   Clear
3:35 AM 77.9 °F - 68.9 °F 74% 29.74 in 10.0 mi WSW 9.2 mph - N/A   Clear
3:54 AM 77.5 °F - 69.1 °F 75% 29.74 in 10.0 mi WSW 6.9 mph - N/A   Clear
4:14 AM 76.6 °F - 69.3 °F 78% 29.74 in 10.0 mi WSW 4.6 mph - N/A   Clear
4:35 AM 76.1 °F - 69.3 °F 79% 29.74 in 10.0 mi Calm Calm - N/A   Clear
4:54 AM 75.2 °F - 69.1 °F 81% 29.75 in 10.0 mi Calm Calm - N/A   Clear
5:14 AM 75.0 °F - 68.9 °F 81% 29.76 in 10.0 mi WSW 5.8 mph - N/A   Clear
5:35 AM 75.2 °F - 68.5 °F 80% 29.76 in 10.0 mi Calm Calm - N/A   Clear
5:54 AM 74.7 °F - 68.0 °F 80% 29.78 in 10.0 mi WSW 4.6 mph - N/A   Clear
6:14 AM 74.7 °F - 67.6 °F 79% 29.79 in 10.0 mi WSW 6.9 mph - N/A   Clear
6:35 AM 74.7 °F - 66.4 °F 75% 29.80 in 10.0 mi West 6.9 mph - N/A   Clear
6:54 AM 75.2 °F - 65.5 °F 72% 29.80 in 10.0 mi West 9.2 mph - N/A   Scattered Clouds
7:14 AM 75.4 °F - 63.9 °F 67% 29.81 in 10.0 mi West 9.2 mph 17.3 mph N/A   Scattered Clouds
7:35 AM 75.6 °F - 63.7 °F 66% 29.81 in 10.0 mi West 9.2 mph - N/A   Scattered Clouds
7:54 AM 75.4 °F - 63.0 °F 65% 29.81 in 10.0 mi WNW 11.5 mph 19.6 mph N/A   Clear
8:14 AM 76.1 °F - 62.4 °F 62% 29.82 in 10.0 mi West 13.8 mph 21.9 mph N/A   Clear
8:35 AM 76.1 °F - 62.1 °F 62% 29.83 in 10.0 mi West 13.8 mph 17.3 mph N/A   Clear
8:54 AM 76.1 °F - 61.3 °F 60% 29.84 in 10.0 mi WNW 9.2 mph 17.3 mph N/A   Clear
9:14 AM 76.5 °F - 61.2 °F 59% 29.84 in 10.0 mi WNW 9.2 mph 16.1 mph N/A   Clear
9:35 AM 76.5 °F - 61.3 °F 59% 29.85 in 10.0 mi West 11.5 mph - N/A   Clear
9:54 AM 76.5 °F - 61.0 °F 59% 29.86 in 10.0 mi WNW 11.5 mph 21.9 mph N/A   Clear
10:14 AM 76.1 °F - 61.0 °F 59% 29.86 in 10.0 mi WNW 16.1 mph 20.7 mph N/A   Clear
10:35 AM 76.1 °F - 60.3 °F 58% 29.87 in 10.0 mi West 15.0 mph 20.7 mph N/A   Clear
10:54 AM 76.1 °F - 60.4 °F 58% 29.88 in 10.0 mi WNW 12.7 mph 18.4 mph N/A   Clear
11:14 AM 76.1 °F - 60.3 °F 58% 29.88 in 10.0 mi West 13.8 mph 17.3 mph N/A   Clear
11:35 AM 76.1 °F - 59.2 °F 56% 29.89 in 10.0 mi West 9.2 mph - N/A   Clear
11:54 AM 77.5 °F - 57.9 °F 51% 29.89 in 10.0 mi WNW 9.2 mph 16.1 mph N/A   Clear
12:14 PM 77.9 °F - 58.5 °F 51% 29.89 in 10.0 mi WNW 11.5 mph 17.3 mph N/A   Clear
12:33 PM 78.3 °F - 57.7 °F 49% 29.89 in 10.0 mi WNW 8.1 mph 18.4 mph N/A   Clear
12:54 PM 79.0 °F - 58.3 °F 49% 29.89 in 10.0 mi West 8.1 mph - N/A   Clear
1:14 PM 79.3 °F - 58.6 °F 49% 29.90 in 10.0 mi West 10.4 mph 18.4 mph N/A   Clear
1:34 PM 79.7 °F - 57.6 °F 47% 29.89 in 10.0 mi West 8.1 mph - N/A   Scattered Clouds
1:54 PM 80.2 °F 80.4 °F 55.8 °F 43% 29.89 in 10.0 mi NW 9.2 mph 19.6 mph N/A   Clear
2:14 PM 80.6 °F 80.7 °F 56.8 °F 44% 29.89 in 10.0 mi West 10.4 mph 18.4 mph N/A   Clear
2:34 PM 81.5 °F 81.4 °F 57.2 °F 43% 29.89 in 10.0 mi WNW 6.9 mph - N/A   Clear
2:55 PM 81.5 °F 81.4 °F 57.0 °F 43% 29.89 in 10.0 mi West 10.4 mph - N/A   Clear
3:14 PM 81.5 °F 81.1 °F 55.6 °F 41% 29.89 in 10.0 mi West 12.7 mph - N/A   Clear
3:34 PM 81.9 °F 81.2 °F 54.7 °F 39% 29.89 in 10.0 mi WNW 10.4 mph 16.1 mph N/A   Clear
3:55 PM 82.4 °F 81.7 °F 54.9 °F 39% 29.88 in 10.0 mi WNW 9.2 mph - N/A   Clear
4:14 PM 82.2 °F 81.6 °F 55.9 °F 40% 29.88 in 10.0 mi NW 11.5 mph 19.6 mph N/A   Scattered Clouds
4:34 PM 81.5 °F 81.4 °F 57.0 °F 43% 29.88 in 10.0 mi West 13.8 mph 18.4 mph N/A   Scattered Clouds
4:55 PM 82.0 °F 81.5 °F 55.2 °F 40% 29.88 in 10.0 mi West 12.7 mph - N/A   Scattered Clouds
5:14 PM 81.9 °F 81.3 °F 55.4 °F 40% 29.88 in 10.0 mi West 11.5 mph - N/A   Clear
5:34 PM 81.5 °F 81.4 °F 56.8 °F 43% 29.88 in 10.0 mi NW 9.2 mph - N/A   Clear
5:54 PM 81.5 °F 81.4 °F 56.8 °F 43% 29.88 in 10.0 mi WNW 11.5 mph - N/A   Scattered Clouds
6:14 PM 81.1 °F 80.9 °F 55.4 °F 41% 29.87 in 10.0 mi WNW 11.5 mph 16.1 mph N/A   Clear
6:34 PM 80.6 °F 80.6 °F 56.5 °F 43% 29.87 in 10.0 mi WNW 10.4 mph - N/A   Clear
6:54 PM 79.9 °F - 55.4 °F 43% 29.87 in 10.0 mi West 11.5 mph - N/A   Clear
7:14 PM 79.7 °F - 57.0 °F 46% 29.87 in 10.0 mi West 8.1 mph - N/A   Clear
7:34 PM 79.5 °F - 57.2 °F 46% 29.87 in 10.0 mi WNW 5.8 mph - N/A   Clear
7:54 PM 77.9 °F - 57.6 °F 49% 29.87 in 10.0 mi West 5.8 mph - N/A   Clear
8:14 PM 77.0 °F - 59.2 °F 54% 29.87 in 10.0 mi Calm Calm - N/A   Clear
8:34 PM 76.1 °F - 59.9 °F 57% 29.87 in 7.0 mi Calm Calm - N/A   Clear
8:54 PM 75.0 °F - 61.0 °F 62% 29.87 in 7.0 mi Calm Calm - N/A   Clear
9:14 PM 74.3 °F - 61.2 °F 63% 29.87 in 10.0 mi Calm Calm - N/A   Clear
9:34 PM 73.8 °F - 60.8 °F 64% 29.88 in 10.0 mi Calm Calm - N/A   Clear
9:54 PM 72.7 °F - 61.2 °F 67% 29.90 in 10.0 mi Calm Calm - N/A   Clear
10:14 PM 72.9 °F - 60.6 °F 65% 29.90 in 10.0 mi Calm Calm - N/A   Clear
10:34 PM 72.5 °F - 61.2 °F 67% 29.91 in 10.0 mi Calm Calm - N/A   Clear
10:54 PM 72.5 °F - 60.8 °F 67% 29.91 in 10.0 mi WSW 4.6 mph - N/A   Clear
11:14 PM 68.2 °F - 57.6 °F 69% 29.94 in 7.0 mi WNW 9.2 mph 26.5 mph 0.04 in Rain , Thunderstorm Light Thunderstorms and Rain
11:34 PM 66.4 °F - 60.3 °F 81% 29.92 in 10.0 mi Calm Calm - 0.05 in   Mostly Cloudy
11:54 PM 65.5 °F - 60.8 °F 85% 29.91 in 10.0 mi SSW 3.5 mph - 0.05 in   Scattered Clouds